C/2015 O1 ( PanSTARRS )

Japanese version
Home page
Updated on December 1, 2023

---------------------------------------------------------------------

* Profile

Discovery Date July 19, 2015
Magnitude 19.6 mag
Discoverer Pan-STARRS 1 telescope (Haleakala)

* Pictures

* Orbital Elements

Epoch 2018 Feb. 11.0 TT = JDT 2458160.5
T 2018 Feb. 19.02459 TT                                 Rudenko
q   3.7297567            (2000.0)            P               Q
z  -0.0000472      Peri.   89.59284     -0.52093835     -0.50153087
                   Node   299.85563     -0.59864741     +0.79148201
e   1.0001759      Incl.  127.21086     +0.60847721     +0.34931793
From 3892 observations 2015 June 15-2020 Mar. 20, mean residual 1".0.
     Nongravitational parameters A1 = +7.99, A2 = -2.0505.

* Finding Charts

* Magnitudes Graph

        m1 = 4.0 + 5 log d + 11.0 log r  [ ,0]  (             - 2018 Feb. 19)
        m1 = 2.8 + 5 log d + 13.0 log r  [0, ]  (2018 Feb. 19 -             )

---------------------------------------------------------------------

The orbital elements are published on M.P.E.C. 2021-F20.
The charts are made with StellaNavigator Ver.8 (AstroArts).
The magnitudes graphs are made with Comet for Windows.

---------------------------------------------------------------------

Copyright(C) Seiichi Yoshida (comet@aerith.net). All rights reserved.